Content
SEND FEEDBACK

Daily
Averages
Monthly
Summary
United States of America

KARLSRUHE, NORTH DAKOTA


Home > North America > United States > North Dakota
Elevation: 1550 feet     Latitude: 48 02N     Longitude: 100 17W

WEATHER
 
SELECT A DAY
Number of Records: 78,431;   Date Range: 5/16/11 - 9/21/14
 
SHARE

PRINT THIS DATA

[ ← Previous Day ]
WEATHER ALMANAC - FEBRUARY 13, 2013
[ Next Day → ]
[ °C ]   °F
Weather ElementAverageHighLow
Temperature26 °F32 °F (11:15 am)17.6 °F (2:35 am)
Dewpoint25.2 °F32 °F (11:15 am)15.8 °F (2:35 am)
Humidity96.9 %100 % (7:35 am)86 % (1:15 am)
Barometer29.65 in29.75 in (8:55 pm)29.56 in (12:55 pm)
Wind Speed4.8 mph10.4 mph (12:35 am)
Weather ElementAverage
Visibility5.6 mi
Wind DirectionSSE (159.2 °)

Weather ElementTotal
Precipitation2.70 in
Heating Degree Days40.2 (Base 65)
Averaged from 71 records on February 13, 2013
WEATHER CONDITIONS BREAKOUT
WIND DIRECTION BREAKOUT
WEATHER BY HOUR - FEBRUARY 13, 2013
[ °C ]   °F
Local TimeTemperatureDewpointHumidityBarometerVisibilityWind DirectionWind SpeedGust SpeedPrecipitationEventsConditions
12:35 AM24.8 °F23.0 °F93 %29.72 in10.0 miWest (270°)10.4 mphClear
12:55 AM24.8 °F23.0 °F93 %29.72 in10.0 miWest (260°)8.1 mphClear
1:15 AM24.8 °F21.2 °F86 %29.72 in10.0 miWest (270°)8.1 mphClear
1:35 AM23.0 °F19.4 °F86 %29.71 in10.0 miWest (270°)8.1 mphClear
1:55 AM23.0 °F19.4 °F86 %29.71 in10.0 miWest (270°)8.1 mphClear
2:15 AM23.0 °F19.4 °F86 %29.70 in10.0 miWest (270°)8.1 mphClear
2:35 AM17.6 °F15.8 °F93 %29.70 in10.0 miWSW (240°)8.1 mphClear
2:55 AM17.6 °F15.8 °F93 %29.70 in10.0 miWSW (250°)5.8 mphClear
3:15 AM17.6 °F15.8 °F93 %29.68 in10.0 miWSW (240°)6.9 mphClear
3:35 AM19.4 °F17.6 °F93 %29.67 in10.0 miWSW (250°)3.5 mphClear
3:55 AM21.2 °F17.6 °F86 %29.66 in10.0 miWSW (250°)6.9 mphClear
4:15 AM23.0 °F19.4 °F86 %29.66 in10.0 miWSW (250°)3.5 mphClear
4:35 AM23.0 °F19.4 °F86 %29.65 in10.0 miCalmPartly Cloudy
4:55 AM21.2 °F19.4 °F93 %29.65 in10.0 miWSW (240°)5.8 mphScattered Clouds
5:15 AM23.0 °F21.2 °F93 %29.64 in10.0 miWSW (250°)8.1 mphScattered Clouds
5:35 AM24.8 °F23.0 °F93 %29.64 in10.0 miWest (260°)5.8 mphClear
5:55 AM24.8 °F23.0 °F93 %29.64 in10.0 miWSW (240°)5.8 mphClear
6:15 AM24.8 °F23.0 °F93 %29.63 in10.0 miWSW (250°)5.8 mphClear
6:35 AM26.6 °F23.0 °F86 %29.63 in10.0 miWSW (240°)4.6 mphClear
6:55 AM26.6 °F24.8 °F93 %29.62 in10.0 miWSW (250°)4.6 mphScattered Clouds
7:15 AM26.6 °F24.8 °F93 %29.61 in9.0 miWSW (250°)3.5 mphSnowLight Snow
7:35 AM24.8 °F24.8 °F100 %29.61 in3.0 miCalmSnowLight Snow
7:55 AM26.6 °F24.8 °F93 %29.60 in2.0 miCalm0.01 inSnowLight Snow
8:15 AM26.6 °F26.6 °F100 %29.60 in1.5 miSW (220°)4.6 mph0.01 inSnowLight Snow
8:35 AM26.6 °F26.6 °F100 %29.59 in1.2 miSSW (200°)3.5 mph0.04 inSnowLight Snow
8:55 AM26.6 °F26.6 °F100 %29.58 in1.2 miCalm0.06 inSnowLight Snow
9:15 AM26.6 °F26.6 °F100 %29.58 in2.0 miCalmSnowLight Snow
9:35 AM28.4 °F28.4 °F100 %29.58 in0.8 miCalm0.04 inSnowLight Snow
9:55 AM28.4 °F28.4 °F100 %29.58 in0.8 miCalm0.13 inSnowLight Snow
10:15 AM28.4 °F28.4 °F100 %29.58 in0.8 miSSW (210°)3.5 mph0.03 inSnowLight Snow
10:35 AM28.4 °F28.4 °F100 %29.58 in0.5 miSW (220°)3.5 mph0.11 inSnowSnow
10:55 AM28.4 °F28.4 °F100 %29.58 in0.5 miCalm0.20 inSnowSnow
11:15 AM32.0 °F32.0 °F100 %29.57 in0.8 miCalm0.06 inSnowLight Snow
11:35 AM32.0 °F32.0 °F100 %29.57 in0.8 miCalm0.14 inSnowLight Snow
11:55 AM30.2 °F30.2 °F100 %29.57 in0.8 miCalm0.21 inSnowLight Snow
12:15 PM30.2 °F30.2 °F100 %29.57 in1.0 miCalm0.01 inSnowLight Snow
12:35 PM30.2 °F30.2 °F100 %29.57 in1.0 miCalm0.08 inSnowLight Snow
12:55 PM30.2 °F30.2 °F100 %29.56 in0.8 miCalm0.20 inSnowLight Snow
1:15 PM30.2 °F30.2 °F100 %29.57 in0.5 miCalm0.12 inSnowSnow
1:35 PM30.2 °F30.2 °F100 %29.57 in1.0 miNorth (350°)4.6 mph0.20 inSnowLight Snow
1:55 PM30.2 °F30.2 °F100 %29.58 in1.2 miNorth (360°)5.8 mph0.34 inSnowLight Snow
2:15 PM30.2 °F30.2 °F100 %29.58 in1.5 miNorth (10°)8.1 mph0.03 inSnowLight Snow
2:35 PM28.4 °F28.4 °F100 %29.59 in1.0 miNNE (20°)9.2 mph0.08 inSnowLight Snow
2:55 PM28.4 °F28.4 °F100 %29.60 in1.2 miNE (40°)10.4 mph0.13 inSnowLight Snow
3:15 PM28.4 °F28.4 °F100 %29.60 in2.5 miNNE (30°)6.9 mph0.01 inSnowLight Snow
3:35 PM28.4 °F28.4 °F100 %29.61 in2.5 miNorth (10°)6.9 mph0.03 inSnowLight Snow
3:55 PM28.4 °F28.4 °F100 %29.62 in1.5 miNorth (10°)8.1 mph0.06 inSnowLight Snow
4:15 PM28.4 °F28.4 °F100 %29.63 in2.5 miNorth (360°)9.2 mph0.01 inSnowLight Snow
4:35 PM26.6 °F26.6 °F100 %29.64 in3.0 miNorth (10°)9.2 mph0.02 inSnowLight Snow
4:55 PM26.6 °F26.6 °F100 %29.65 in8.0 miNorth (350°)6.9 mph0.02 inSnowLight Snow
5:15 PM26.6 °F26.6 °F100 %29.67 in9.0 miNNW (340°)6.9 mphOvercast
5:35 PM26.6 °F26.6 °F100 %29.68 in10.0 miNNW (340°)6.9 mphOvercast
5:55 PM26.6 °F26.6 °F100 %29.69 in10.0 miNNW (340°)5.8 mphOvercast
6:15 PM26.6 °F26.6 °F100 %29.69 in9.0 miNorth (350°)5.8 mphSnowLight Snow
6:35 PM26.6 °F26.6 °F100 %29.71 in10.0 miNW (310°)5.8 mphOvercast
6:55 PM26.6 °F26.6 °F100 %29.72 in10.0 miNNW (330°)6.9 mphOvercast
7:15 PM26.6 °F26.6 °F100 %29.72 in10.0 miNNW (330°)4.6 mphSnowLight Snow
7:35 PM26.6 °F26.6 °F100 %29.73 in7.0 miNorth (350°)3.5 mphSnowLight Snow
7:55 PM26.6 °F26.6 °F100 %29.73 in5.0 miNorth (360°)5.8 mphSnowLight Snow
8:15 PM26.6 °F26.6 °F100 %29.73 in9.0 miNorth (10°)6.9 mphSnowLight Snow
8:35 PM26.6 °F24.8 °F93 %29.74 in8.0 miNNE (20°)6.9 mphSnowLight Snow
8:55 PM24.8 °F24.8 °F100 %29.75 in3.0 miNorth (10°)4.6 mph0.02 inSnowLight Snow
9:15 PM24.8 °F24.8 °F100 %29.75 in2.5 miNNE (20°)3.5 mph0.02 inSnowLight Snow
9:35 PM24.8 °F24.8 °F100 %29.75 in2.0 miNNE (30°)4.6 mph0.08 inSnowLight Snow
9:55 PM24.8 °F24.8 °F100 %29.75 in2.5 miNNE (30°)3.5 mph0.11 inSnowLight Snow
10:15 PM24.8 °F24.8 °F100 %29.75 in2.0 miENE (70°)4.6 mph0.02 inSnowLight Snow
10:35 PM24.8 °F24.8 °F100 %29.74 in7.0 miEast (100°)4.6 mph0.03 inOvercast
10:55 PM23.0 °F23.0 °F100 %29.75 in9.0 miESE (120°)4.6 mph0.03 inOvercast
11:15 PM23.0 °F23.0 °F100 %29.75 in8.0 miESE (120°)3.5 mphOvercast
11:35 PM23.0 °F23.0 °F100 %29.75 in5.0 miESE (120°)5.8 mphSnowLight Snow
11:55 PM23.0 °F23.0 °F100 %29.75 in4.0 miSE (130°)5.8 mph0.01 inSnowLight Snow
Hourly data recorded from K5H4, located miles away from Karlsruhe, North Dakota







STORIES FROM OUR PARTNERS